Regional Weather Roundup
Issued by NWS

Home | Current Version | Previous Version | Text Only | Print | Product List | Glossary Off
Versions: 1 2 3 4 5 6 7 8 9 10 11 12 13 14 15 16 17 18 19 20 21 22 23 24 25 26 27 28 29 30 31 32 33 34 35 36 37 38 39 40 41 42 43 44 45 46 47 48 49 50

000
ASUS43 KOAX 211102
RWRNE

WEATHER ROUNDUP FOR NEBRASKA
NATIONAL WEATHER SERVICE OMAHA NE
500 AM CST TUE FEB 21 2017

NOTES: SATELLITE DATA IS BEING USED TO AUGMENT CLOUD COVER ABOVE
       12000 FEET.
       "FAIR" INDICATES FEW OR NO CLOUDS BELOW 12,000 FEET WITH NO
       SIGNIFICANT WEATHER AND/OR OBSTRUCTIONS TO VISIBILITY.

  * THESE STATIONS DO NOT REPORT WEATHER SUCH AS RAIN...SNOW OR FOG.

NEZ001>004-019>022-054>056-211200-
NEBRASKA PANHANDLE

CITY           SKY/WX    TMP DP  RH WIND       PRES   REMARKS
SCOTTSBLUFF    CLEAR     29  22  75 N5        29.94S WCI  24
ALLIANCE       CLEAR     32  22  66 W6        29.91R WCI  26
CHADRON        CLEAR     45  26  47 VRB3      29.86S
SIDNEY         CLEAR     33  17  51 W12       29.96S WCI  24
$$

NEZ057>060-069>072-079>082-211200-
SOUTHWEST NEBRASKA

CITY           SKY/WX    TMP DP  RH WIND       PRES   REMARKS
NORTH PLATTE   CLOUDY    27  21  78 W3        29.96S
IMPERIAL       CLOUDY    37  18  46 SW6       29.96S WCI  32
LEXINGTON      CLOUDY    35  24  64 W5        29.97R WCI  31
MCCOOK         CLOUDY    30  22  72 W8        29.98S WCI  22
OGALLALA       CLOUDY    30  20  65 SW5       29.95S WCI  25
$$

NEZ005>010-023>029-035>040-094-211200-
NORTH CENTRAL NEBRASKA

CITY           SKY/WX    TMP DP  RH WIND       PRES   REMARKS
VALENTINE      CLOUDY    43  21  41 SW13      29.86R
AINSWORTH      CLEAR     42  24  49 SW9       29.86F
BROKEN BOW     CLEAR     37  27  67 SW8       29.93F WCI  31
O`NEILL        CLEAR     40  32  74 SW10      29.90S WCI  33
ORD            CLEAR     32  27  81 S5        29.93S WCI  27
THEDFORD       PTCLDY    39  20  46 CALM      29.91F
$$

NEZ041-046>049-061>064-073>077-083>087-211200-
SOUTH CENTRAL NEBRASKA

CITY           SKY/WX    TMP DP  RH WIND       PRES   REMARKS
GRAND ISLAND   CLEAR     36  32  85 SW8       29.98R WCI  30
AURORA         CLEAR     35  32  88 SW9       29.97S WCI  28
HASTINGS       CLEAR     38  31  76 SW6       29.99S WCI  33
HEBRON         CLOUDY    30  29  96 CALM      30.01R
HOLDREGE       CLEAR     38  26  61 S5        29.97F WCI  34
KEARNEY *      CLEAR     37  27  65 SW6       29.98S WCI  33
YORK           CLEAR     36  34  93 SW7       29.98R WCI  30
$$

NEZ011>018-030>034-042>045-211200-
NORTHEAST NEBRASKA

CITY           SKY/WX    TMP DP  RH WIND       PRES   REMARKS
NORFOLK        CLEAR     34  30  85 S7        29.94R WCI  28
ALBION         CLEAR     40  32  73 SE3       29.94R
BLAIR          FOG       36  35  96 S3        29.95S VSB 1
FREMONT        PTCLDY    30  30 100 W7        29.97R FOG     WCI  23
TEKAMAH        FOG       30  29  96 CALM      29.95S VSB 1
WAYNE          CLEAR     34  32  93 S5        29.94R WCI  30
$$

NEZ050>053-065>068-078-088>093-211200-
SOUTHEAST NEBRASKA

CITY           SKY/WX    TMP DP  RH WIND       PRES   REMARKS
LINCOLN        CLEAR     28  26  92 N5        29.99R WCI  23
OMAHA EPPLEY   FOG       34  31  88 SE6       29.96S VSB 1   WCI  29
BEATRICE       CLOUDY    29  29  97 W7        29.98R WCI  22
FALLS CITY     CLEAR     35  35 100 NW6       29.97S WCI  30
NEBRASKA CITY  CLEAR     37  36  98 S6        29.97S WCI  32
PLATTSMOUTH    CLEAR     40  37  89 S3        29.96S
$$

NEZ044-045-051>053-067-211200-
OMAHA AREA

CITY           SKY/WX    TMP DP  RH WIND       PRES   REMARKS
OMAHA EPPLEY   FOG       34  31  88 SE6       29.96S VSB 1   WCI  29
BLAIR          FOG       36  35  96 S3        29.95S VSB 1
FREMONT        PTCLDY    30  30 100 W7        29.97R FOG     WCI  23
MILLARD        FOG       34  33  97 CALM      29.96S VSB 3/4
PLATTSMOUTH    CLEAR     40  37  89 S3        29.96S
WAHOO          FAIR      32  31  97 CALM      29.97R
$$




USA.gov is the U.S. government's official web portal to all federal, state and local government web resources and services.